Location: Miss�
(46.9484°N, 0.1922°W)
Time: 10:37:30
(UTC+00:00)

Cosmos 2341 Rocket - Pass Details

Date: 02 March 2021
Orbit: 968 x 1005 km, 82.9° (Epoch: 11 April)

Event Time Altitude Azimuth Distance (km) Brightness Sun altitude
Rises 19:45:31 0° 190° (S) 3,700 7.0 -20.8°
Reaches altitude 10° 19:48:02 10° 192° (SSW) 2,750 6.3 -21.2°
Maximum altitude 19:54:21 79° 279° (W) 1,009 4.1 -22.2°
Drops below altitude 10° 20:00:40 10° 7° (N) 2,743 6.4 -23.3°
Sets 20:03:11 0° 9° (N) 3,690 7.1 -23.7°
